WetterOnline ( https://www.wetteronline.de )

Wetter aktuell Königshütte

Aktuelles Wetter: Wernigerode (240m)

6-stündlich | Neueste Meldungen
Ortszeit Temperatur Wetter
Do, 21.11. 7:00 3.3° C bedeckt
Do, 21.11. 1:00 3.2° C bedeckt
Mi, 20.11. 19:00 3.0° C bedeckt
Mi, 20.11. 13:00 4.2° C bewölkt
Mi, 20.11. 7:00 0.6° C leicht bewölkt
Mi, 20.11. 1:00 2.3° C bewölkt
Di, 19.11. 19:00 1.7° C bedeckt
Di, 19.11. 13:00 7.1° C wolkenlos
Ortszeit Temperatur Wetter
Do, 21.11. 9:30 3.8° C bedeckt
Do, 21.11. 9:20 3.8° C bedeckt
Do, 21.11. 9:10 3.8° C bedeckt
Do, 21.11. 9:00 3.7° C bedeckt
Do, 21.11. 8:50 3.7° C bedeckt
Do, 21.11. 8:40 3.7° C bedeckt
Do, 21.11. 8:30 3.6° C bedeckt
Do, 21.11. 8:00 3.4° C bedeckt
Ortszeit Relative Feuchte Sichtweite
Do, 21.11. 7:00 97% 2.8 km
Do, 21.11. 1:00 91% 8 km
Mi, 20.11. 19:00 95% 5.0 km
Mi, 20.11. 13:00 84% 11 km
Mi, 20.11. 7:00 95% 25 km
Mi, 20.11. 1:00 91% 40 km
Di, 19.11. 19:00 87% 35 km
Di, 19.11. 13:00 63% >70 km
Ortszeit Relative Feuchte Sichtweite
Do, 21.11. 9:30 97% 8 km
Do, 21.11. 9:20 97% -
Do, 21.11. 9:10 97% -
Do, 21.11. 9:00 97% 9 km
Do, 21.11. 8:50 97% -
Do, 21.11. 8:40 97% -
Do, 21.11. 8:30 97% 8 km
Do, 21.11. 8:00 98% 4.5 km
Ortszeit Niederschlagsmenge Niederschlagsart
Do, 21.11. 7:00 0.2 l/m2 in 12 Std. -
Do, 21.11. 1:00 0.1 l/m2 in 6 Std. Regen
Mi, 20.11. 19:00 0.0 l/m2 in 12 Std. -
Mi, 20.11. 13:00 0.0 l/m2 in 6 Std. -
Mi, 20.11. 7:00 0.1 l/m2 in 12 Std. Regen
Mi, 20.11. 1:00 0.1 l/m2 in 6 Std. Regen
Di, 19.11. 19:00 0.0 l/m2 in 12 Std. -
Di, 19.11. 13:00 0.0 l/m2 in 6 Std. -
Ortszeit Niederschlagsmenge Niederschlagsart
Do, 21.11. 9:30 0.0 l/m2 in 1 Std. -
Do, 21.11. 9:20 keine Meldung -
Do, 21.11. 9:10 keine Meldung -
Do, 21.11. 9:00 0.1 l/m2 in 1 Std. -
Do, 21.11. 8:50 keine Meldung -
Do, 21.11. 8:40 keine Meldung -
Do, 21.11. 8:30 0.1 l/m2 in 1 Std. -
Do, 21.11. 8:00 0.1 l/m2 in 1 Std. -
Ortszeit Stärke Spitze Richtung
km/h Bft. km/h Grad Sektor
Do, 21.11. 7:00 0 0 7 - -
Do, 21.11. 1:00 0 0 11 - -
Mi, 20.11. 19:00 0 0 11 - -
Mi, 20.11. 13:00 7 2 11 50° NO
Mi, 20.11. 7:00 6 1 9 170° S
Mi, 20.11. 1:00 0 0 11 - -
Di, 19.11. 19:00 2 1 35 120° SO
Di, 19.11. 13:00 7 2 50 230° SW
Ortszeit Stärke Spitze Richtung
km/h Bft. km/h Grad Sektor
Do, 21.11. 9:30 4 1 7 180° S
Do, 21.11. 9:20 4 1 - 180° S
Do, 21.11. 9:10 2 1 - 160° S
Do, 21.11. 9:00 2 1 4 130° SO
Do, 21.11. 8:50 2 1 - 130° SO
Do, 21.11. 8:40 4 1 - 100° O
Do, 21.11. 8:30 0 0 4 - -
Do, 21.11. 8:00 0 0 4 - -
Ortszeit Untergrenze Bedeckung Gattung
total tief tief mittel hoch
Do, 21.11. 7:00 150 m 8/8 8/8 - - -
Do, 21.11. 1:00 330 m 8/8 8/8 - - -
Mi, 20.11. 19:00 720 m 8/8 8/8 - - -
Mi, 20.11. 13:00 300 m 7/8 7/8 - - -
Mi, 20.11. 7:00 300 m 4/8 4/8 - - -
Mi, 20.11. 1:00 900 m 7/8 7/8 - - -
Di, 19.11. 19:00 1800 m 8/8 8/8 - - -
Di, 19.11. 13:00 - 0/8 0/8 - - -
Ortszeit Bedeckungsgrad in Achtel und Wolkenuntergrenze
Do, 21.11. 9:30 8(90m)
Do, 21.11. 9:20 8(90m)
Do, 21.11. 9:10 8(90m)
Do, 21.11. 9:00 8(90m)
Do, 21.11. 8:50 8(90m)
Do, 21.11. 8:40 8(90m)
Do, 21.11. 8:30 8(90m)
Do, 21.11. 8:00 8(120m)
Ortszeit Luftdruck NN (hPa) Tendenz (hPa in 3 Std.)
Do, 21.11. 7:00 1013 - 1,4
Do, 21.11. 1:00 1016 - 1,2
Mi, 20.11. 19:00 1017 - 0,1
Mi, 20.11. 13:00 1019 - 1,1
Mi, 20.11. 7:00 1020 - 0,1
Mi, 20.11. 1:00 1020 + 0,3
Di, 19.11. 19:00 1019 + 1,6
Di, 19.11. 13:00 1016 + 1,5
Ortszeit Luftdruck NN (hPa) Tendenz (hPa in 3 Std.)
Do, 21.11. 9:30 1013 - 0,5
Do, 21.11. 9:20 1013 keine Meldung
Do, 21.11. 9:10 1013 keine Meldung
Do, 21.11. 9:00 1013 - 0,7
Do, 21.11. 8:50 1013 keine Meldung
Do, 21.11. 8:40 1013 keine Meldung
Do, 21.11. 8:30 1013 - 0,8
Do, 21.11. 8:00 1013 - 0,8
Ortszeit Schneehöhe (cm)
Do, 21.11. 7:00 0
Do, 21.11. 1:00 0
Mi, 20.11. 19:00 0
Mi, 20.11. 13:00 0
Mi, 20.11. 7:00 0
Mi, 20.11. 1:00 0
Di, 19.11. 19:00 0
Di, 19.11. 13:00 0
Ortszeit Schneehöhe (cm)
Do, 21.11. 9:30 0
Do, 21.11. 9:20 0
Do, 21.11. 9:10 0
Do, 21.11. 9:00 0
Do, 21.11. 8:50 0
Do, 21.11. 8:40 0
Do, 21.11. 8:30 0
Do, 21.11. 8:00 0
Link zu dieser Seite / Seite empfehlen

Das Wetter in ...